Location: Berlin
(38.3226°N, 75.2177°W)
Time: 23:12:42
(UTC+00:00)

DELTA 2 R/B (1) - Pass Details

Date: 26 October 2020
Orbit: 790 x 803 km, 39.6° (Epoch: 25 November)

Event Time Altitude Azimuth Distance (km) Brightness Sun altitude
Exits shadow 10:24:55 15° 271° (W) 2,010 5.0 -11.7°
Maximum altitude 10:28:58 38° 209° (SSW) 1,196 4.3 -10.9°
Drops below altitude 10° 10:34:06 10° 143° (SE) 2,365 6.7 -9.9°
Sets 10:36:44 0° 135° (SE) 3,294 7.7 -9.4°
